This demonstration page uses our WeatherBlox Daily Observations layout. Learn more.

41.86663, -103.66717

Hourly Observations for December 13, 2019

Temp ( °F °C ) Dew Point ( °F °C ) Humidity (%) Winds ( mph kmh ) Pressure ( in mb ) Visibility ( mi km ) Precip ( " mm )
12:53 am 00:53 Mostly Clear 35 1.7 33 0.6 93 93 WNW 8 13 29.88 1012 10 16.0934 0 0
1:53 am 01:53 Clear 33 0.6 32 0 96 96 N 3 6 29.88 1012 10 16.0934 0 0
2:53 am 02:53 Clear 31 -0.6 30 -1.1 96 96 VRB 3 6 29.89 1012 10 16.0934 0 0
3:53 am 03:53 Clear 30 -1.1 29 -1.7 96 96 NW 3 6 29.88 1012 10 16.0934 0 0
4:53 am 04:53 Clear 30 -1.1 28 -2.2 92 92 N 5 7 29.86 1011 10 16.0934 0 0
5:53 am 05:53 Mostly Cloudy 29 -1.7 29 -1.7 100 100 Calm 29.89 1012 10 16.0934 0 0
6:53 am 06:53 Partly Cloudy with Mist and Fog 26 -3.3 26 -3.3 100 100 Calm 29.89 1012 2 3.21868 0 0
6:55 am 06:55 Mostly Cloudy with Mist and Fog 26 -3.3 26 -3.3 100 100 Calm 29.99 1016 1.5 2.41401 0 0
7:18 am 07:18 Mostly Cloudy with Mist and Fog 26 -3.3 24 -4.4 92 92 NNE 5 7 29.99 1016 4 6.43736 0 0
7:32 am 07:32 Mostly Cloudy 26 -3.3 25 -3.9 96 96 NNE 5 7 29.98 1015 10 16.0934 0 0
7:53 am 07:53 Mostly Cloudy 31 -0.6 29 -1.7 92 92 Calm 29.88 1012 10 16.0934 0 0
8:53 am 08:53 Cloudy 33 0.6 31 -0.6 92 92 NW 3 6 29.87 1012 10 16.0934 0 0
9:53 am 09:53 Cloudy 37 2.8 34 1.1 89 89 NW 9 15 29.88 1012 10 16.0934 0.001 0.001
10:53 am 10:53 Cloudy 40 4.4 35 1.7 83 83 NNW 10 17 29.86 1011 10 16.0934 0.001 0.001
11:53 am 11:53 Cloudy 44 6.7 32 0 63 63 NW 22 35 29.87 1011 10 16.0934 0 0
12:53 pm 12:53 Cloudy 41 5 33 0.6 73 73 NNW 22 35 29.9 1013 10 16.0934 0.001 0.001
1:53 pm 13:53 Mostly Cloudy 41 5 31 -0.6 67 67 NW 16 26 29.92 1013 10 16.0934 0 0
2:53 pm 14:53 Mostly Cloudy 40 4.4 29 -1.7 65 65 NNW 15 24 29.95 1014 10 16.0934 0 0
3:53 pm 15:53 Cloudy 39 3.9 28 -2.2 65 65 NNW 13 20 29.97 1015 10 16.0934 0 0
4:53 pm 16:53 Cloudy 35 1.7 28 -2.2 76 76 W 9 15 29.99 1016 10 16.0934 0 0
5:53 pm 17:53 Clear 35 1.7 28 -2.2 76 76 WNW 9 15 30 1016 10 16.0934 0 0
6:53 pm 18:53 Mostly Clear 33 0.6 27 -2.8 78 78 WNW 7 11 30.01 1016 10 16.0934 0 0
7:53 pm 19:53 Mostly Cloudy 32 0 27 -2.8 82 82 WNW 5 7 29.99 1016 10 16.0934 0 0
8:53 pm 20:53 Mostly Cloudy 29 -1.7 27 -2.8 92 92 Calm 29.99 1016 10 16.0934 0 0
9:53 pm 21:53 Cloudy 30 -1.1 27 -2.8 88 88 WNW 3 6 29.97 1015 10 16.0934 0 0
10:53 pm 22:53 Partly Cloudy 29 -1.7 26 -3.3 89 89 NNE 3 6 29.94 1014 10 16.0934 0 0
11:53 pm 23:53 Clear 24 -4.4 23 -5 96 96 NNW 6 9 29.93 1014 10 16.0934 0 0

Powered by AerisWeather